Regional Weather Roundup
Issued by NWS Sterling, VA

Home | Current Version | Previous Version | Graphics & Text | Print | Product List | Glossary On
Versions: 1 2 3 4 5 6 7 8 9 10 11 12 13 14 15 16 17 18 19 20 21 22 23 24 25 26 27 28 29 30 31 32 33 34 35 36 37 38 39 40 41 42 43 44 45 46 47 48 49 50
000
ASUS41 KLWX 250310
RWRLWX

REGIONAL WEATHER ROUNDUP
NATIONAL WEATHER SERVICE BALTIMORE MD/WASHINGTON DC
1000 PM EST SAT JAN 24 2015

Note: "FAIR" indicates few or no clouds below 12,000 feet
with no significant weather and/or obstructions to visibility.
 TC=TEMPERATURE CELSIUS

 * =Non NWS site. Station does not report precipitation (e.g. rain,
    snow, etc.), thunder, or fog.

DCZ001-MDZ009-015-VAZ040>042-051-053>054-250400-
WASHINGTON METRO

CITY           SKY/WX    TMP DP  RH WIND       PRES   REMARKS
WASHINGTON NAT PTCLDY    40  24  53 W7        29.64R
DULLES         MOCLDY    36  26  67 NW18      29.63R WCI  26
ANDREWS AFB    CLEAR     37  25  64 W10       29.63R
FT BELVOIR     CLEAR     38  25  59 W7        29.65R
QUANTICO       PTCLDY    37  25  61 NW3       29.67R
COLLEGE PARK*  CLEAR     37  28  70 W3        29.62R
LEESBURG*      CLOUDY    37  30  75 NW12G21   29.65R
MANASSAS*      MOCLDY    36  27  69 W6        29.66R
GAITHERSBURG*  CLOUDY    34  25  69 W12       29.65R WCI  25

$$

MDZ006>007-011-014-250400-
BALTIMORE METRO

CITY           SKY/WX    TMP DP  RH WIND       PRES   REMARKS
BWI AIRPORT    PTCLDY    36  25  64 W13G18    29.61R WCI  27
MD SCIENCE CTR   N/A     36  25  64 MISG      29.60R
MARTIN STATE   CLEAR     37  28  70 W7        29.61R
ANNAPOLIS      CLEAR     37  25  61 W13G21    29.62R WCI  29
FORT MEADE*    MOCLDY    32  28  86 W8        29.64R WCI  25

$$

MDZ012-015-019>023-250400-
MARYLAND EASTERN SHORE

CITY           SKY/WX    TMP DP  RH WIND       PRES   REMARKS
OCEAN CITY     CLEAR     36  30  79 W8        29.61R
SALISBURY      CLEAR     40  29  64 W12       29.62R
BAY BRIDGE AP*   N/A     36  28  75 W7G16     29.61S
CAMBRIDGE*     CLEAR     41  28  60 W8G20     29.62R
EASTON*        CLEAR     38  29  70 NW8       29.65

$$

MDZ017>025-250400-
SOUTHERN MARYLAND

CITY           SKY/WX    TMP DP  RH WIND       PRES   REMARKS
PATUXENT RIVER CLEAR     37  27  67 W10       29.64R
ST INIGOES     CLEAR     37  32  82 W3        29.63R
LEONARDTOWN*   CLEAR     36  28  75 W5        29.65R

$$

MDZ003>005-250400-
NORTH CENTRAL MARYLAND

CITY           SKY/WX    TMP DP  RH WIND       PRES   REMARKS
FREDERICK*     MOCLDY    37  27  65 W14G23    29.64R WCI  29
HAGERSTOWN APT CLOUDY    36  26  67 NW12      29.62R WCI  28
WESTMINSTER*   CLOUDY    36  27  69 W15G26    29.59R WCI  26

$$

MDZ501>502-250400-
WESTERN MARYLAND

CITY           SKY/WX    TMP DP  RH WIND       PRES   REMARKS
OAKLAND*       FOG       25 N/A N/A W9G22     29.58R VSB 1/4 WCI  15
CUMBERLAND*    CLOUDY    36  28  75 W3        29.71R

$$

VAZ025>031-250400-
SHENANDOAH VALLEY

CITY           SKY/WX    TMP DP  RH WIND       PRES   REMARKS
WINCHESTER*    CLOUDY    37  23  56 W16G22    29.64R WCI  28
FRONT ROYAL*   CLOUDY    37  27  65 W14G25    29.63R WCI  29
LURAY*         CLOUDY    37  28  70 SW7       29.66R
NEW MARKET*    CLOUDY    37  25  63 NW8G17    29.67R
STAUNTON*      CLOUDY    35  24  64 SW5G17    29.69R
WAYNESBORO*    CLOUDY    33  24  69 CALM      29.67R

$$

WVZ021-048>050-054>055-250400-
EASTERN WEST VIRGINIA PANHANDLE

CITY           SKY/WX    TMP DP  RH WIND       PRES   REMARKS
MARTINSBURG    CLOUDY    38  25  59 W17G25    29.63R WCI  28
PETERSBURG*    CLOUDY    36  23  60 SW6       29.70R

$$

VAZ036>039-050-250400-
CENTRAL FOOTHILLS

CITY           SKY/WX    TMP DP  RH WIND       PRES   REMARKS
CHARLOTTESVILL MOCLDY    36  23  59 VRB7      29.66R
CULPEPER*      MOCLDY    41  27  56 NW5       29.66R
ORANGE*        PTCLDY    37  27  65 SW7       29.68R
GORDONSVILLE*  FAIR      37  24  57 SW6       29.67R
WARRENTON*     MOCLDY    37  30  75 CALM      29.65R

$$

VAZ055>057-250400-
NORTH AND CENTRAL PIEDMONT

CITY           SKY/WX    TMP DP  RH WIND       PRES   REMARKS
FREDERICKSBRG* CLEAR     32  32 100 W6        29.65R
STAFFORD*      PTCLDY    31  25  76 CALM      29.70R

$$

NCZ024-NYZ072-PAZ021-071-VAZ022-071-250400-
OTHER REGIONAL OBSERVATIONS

CITY           SKY/WX    TMP DP  RH WIND       PRES   REMARKS
NEW YORK CITY  PTCLDY    36  23  59 VRB7      29.46R
PHILADELPHIA   PTCLDY    37  25  61 W17G28    29.55R WCI  27
PITTSBURGH     FRZ DRZL  31  29  92 W12       29.67R FOG     WCI  22
ROANOKE        CLOUDY    37  25  61 W18G30    29.76R WCI  27
RICHMOND       CLEAR     39  27  62 W10       29.68R
RALEIGH        CLEAR     39  25  57 W5        29.78R

$$

ANZ530>537-250400-
MARINE OBSERVATIONS

STATION/POSITION TIME  TEMP    WIND        PRES
                       AIR SEA DIR/SP/G
                 (UTC) (F)     (DEG/KT/KT) (MB)
THOMAS PT LIGHT  0300   38 37  290/ 17/ 19 1003.7R
BALT KEY BRIDGE  0300   38     270/ 12/ 14 1002.1R
COVE POINT       0300   38     320/ 10/ 13 1003.2R
LEWISETTA        0300   38 38  260/  4/  5 1003.7R
SOLOMONS ISLAND  0300      38                N/A
PINEY POINT      0300          300/  8/  9   N/A

$$




USA.gov is the U.S. government's official web portal to all federal, state and local government web resources and services.